Regional Weather Roundup
Issued by NWS

Home | Current Version | Previous Version | Graphics & Text | Print | Product List | Glossary On
Versions: 1 2 3 4 5 6 7 8 9 10 11 12 13 14 15 16 17 18 19 20 21 22 23 24 25 26 27 28 29 30 31 32 33 34 35 36 37 38 39 40 41 42 43 44 45 46 47 48 49 50
676
ASUS45 KBOI 210310
RWRID

IDAHO REGIONAL WEATHER ROUNDUP
NATIONAL WEATHER SERVICE BOISE ID
800 PM MST SAT JAN 20 2018

NOTE: "FAIR" INDICATES FEW OR NO CLOUDS BELOW 12000 FEET
WITH NO SIGNIFICANT WEATHER AND/OR OBSTRUCTIONS TO VISIBILITY

IDZ012-014-210400-
SOUTHWEST IDAHO


CITY           SKY/WX    TMP DP  RH WIND       PRES   REMARKS
BOISE          CLOUDY    36  27  69 W5        30.10R WCI  32
CALDWELL         N/A     37  28  70 SW3       30.12S
MOUNTAIN HOME  CLEAR     29  29 100 NW9       30.09R WCI  21
$$

IDZ016-017-210400-
SOUTHCENTRAL IDAHO


CITY           SKY/WX    TMP DP  RH WIND       PRES   REMARKS
BURLEY         CLEAR     30  24  78 W9        30.01S WCI  22
JEROME         CLEAR     29  24  82 SW8       30.03S WCI  21
TWIN FALLS     CLEAR     28  24  85 SW12      30.04R WCI  18
$$

IDZ019>023-210400-
SOUTHEAST IDAHO


CITY           SKY/WX    TMP DP  RH WIND       PRES   REMARKS
IDAHO FALLS    CLEAR     27  18  69 N7        29.98S WCI  19
POCATELLO      CLOUDY    32  23  69 NW10      30.00R WCI  24
REXBURG        CLEAR     21  13  71 E7        29.98R WCI  12
$$

IDZ006-010-011-018-031-032-210400-
CENTRAL IDAHO MOUNTAINS


CITY           SKY/WX    TMP DP  RH WIND       PRES   REMARKS
MCCALL         CLOUDY    26  23  88 CALM      30.01S
HAILEY         CLEAR     23  10  58 N7        30.01R WCI  15
STANLEY          N/A     16  11  80 CALM      29.99S
SALMON         CLOUDY    28  23  81 CALM      30.06R
CHALLIS        CLOUDY    30  16  56 CALM      30.01R
$$

IDZ002-004-006-007-026-210400-
NORTHERN IDAHO


CITY           SKY/WX    TMP DP  RH WIND       PRES   REMARKS
LEWISTON       PTCLDY    39  34  82 CALM      30.11R
LOWELL           N/A     36  34  92 CALM      30.14S
COEUR D`ALENE  PTCLDY    34  31  88 SE6       30.07R WCI  29
MULLAN PASS    CLOUDY    22  19  89 VRB5      29.94S WCI  16
$$




USA.gov is the U.S. government's official web portal to all federal, state and local government web resources and services.